Location: ??????
(55.7522°N, 37.6156°E)
Time: 16:55:43
(UTC+00:00)

GP-B - Pass Details

Date: 14 June 2025
Orbit: 619 x 624 km, 89.8° (Epoch: 12 July)

Event Time Altitude Azimuth Distance (km) Brightness Sun altitude
Rises 19:35:23 0° 1° (N) 2,917 7.8 -7.3°
Reaches altitude 10° 19:37:36 10° 2° (N) 2,005 6.8 -7.4°
Maximum altitude 19:42:01 85° 91° (E) 632 3.1 -7.7°
Drops below altitude 10° 19:46:24 10° 181° (S) 1,986 5.1 -7.9°
Enters shadow 19:46:50 - 181° (S) 2,169 5.3 -8.0°
